Location: Skalnate Pleso
(49.1889°N, 20.2450°E)
Time: 09:22:01
(UTC+01:00)

COSMOS 2455 - Pass Details

Date: 19 November 2019
Orbit: 902 x 908 km, 67.1° (Epoch: 15 December)

Event Time Altitude Azimuth Distance (km) Brightness Sun altitude
Exits shadow 05:49:55 13° 285° (WNW) 2,360 4.3 -10.5°
Maximum altitude 05:52:26 17° 257° (WSW) 2,129 4.3 -10.1°
Drops below altitude 10° 05:56:06 10° 218° (SW) 2,584 5.0 -9.6°
Sets 05:59:29 0° 199° (SSW) 3,518 5.9 -9.0°
